Deptford, New Jersey, United States
Lat: 39.83N, Lon: 75.13W
Wx Zone: NJZ017
Local Info
Past Weather Observations for Sunday, October 19, 2014

NOTE: This archive is for the closest National Weather Service station to Deptford. Information may differ from the station used for current weather conditions.

Click here for Long-term Archive

Time Weather Temperature Dewpoint Humidity Pressure Winds Precip Visibility
23:54
Mostly Cloudy
45°F / 7°C 28°F / -2°C 53% 30.12 in
(1020 mb)
N 4.6 mph
(N 7 kph)
- 10SM
22:54
Partly Cloudy
46°F / 8°C 28°F / -2°C 50% 30.09 in
(1019 mb)
Variable 3.5 mph
(Variable 6 kph)
- 10SM
21:54
Clear
48°F / 9°C 28°F / -2°C 46% 30.09 in
(1019 mb)
Calm - 10SM
20:54
Clear
52°F / 11°C 28°F / -2°C 41% 30.09 in
(1019 mb)
NNW 3.5 mph
(NNW 6 kph)
- 10SM
19:54
Clear
52°F / 11°C 27°F / -3°C 38% 30.09 in
(1019 mb)
NW 4.6 mph
(NW 7 kph)
- 10SM
18:54
Clear
52°F / 11°C 27°F / -3°C 38% 30.06 in
(1018 mb)
NNW 4.6 mph
(NNW 7 kph)
- 10SM
17:54
Partly Cloudy
54°F / 12°C 25°F / -4°C 33% 30.04 in
(1017 mb)
NW 9.2 mph
(NW 15 kph)
- 10SM
16:54
Partly Cloudy
54°F / 12°C 27°F / -3°C 35% 30.04 in
(1017 mb)
NW 13.8 mph
(NW 22 kph)
- 10SM
15:54
Partly Cloudy
55°F / 13°C 27°F / -3°C 33% 30.01 in
(1016 mb)
NW 15 mph
(NW 24 kph)
- 10SM
14:54
Partly Cloudy
55°F / 13°C 27°F / -3°C 33% 30.01 in
(1016 mb)
NNW 20.7 mph
(NNW 33 kph)
- 10SM
13:54
Partly Cloudy
55°F / 13°C 27°F / -3°C 33% 29.98 in
(1015 mb)
NW 13.8 mph
(NW 22 kph)
- 10SM
12:54
Partly Cloudy
55°F / 13°C 27°F / -3°C 33% 29.98 in
(1015 mb)
NW 19.6 mph
(NW 32 kph)
- 10SM
11:54
Partly Cloudy
54°F / 12°C 30°F / -1°C 41% 29.98 in
(1015 mb)
NNW 25.3 mph
(NNW 41 kph)
- 10SM
10:54
Partly Cloudy
54°F / 12°C 34°F / 1°C 47% 29.98 in
(1015 mb)
NW 21.9 mph
(NW 35 kph)
- 10SM
09:54
Mostly Cloudy
52°F / 11°C 32°F / 0°C 47% 29.98 in
(1015 mb)
NW 18.4 mph
(NW 30 kph)
- 10SM
08:54
Mostly Cloudy
52°F / 11°C 36°F / 2°C 54% 29.98 in
(1015 mb)
NW 19.6 mph
(NW 32 kph)
- 10SM
07:54
Mostly Cloudy
52°F / 11°C 36°F / 2°C 54% 29.95 in
(1014 mb)
NW 15 mph
(NW 24 kph)
- 10SM
06:54
Mostly Cloudy
52°F / 11°C 36°F / 2°C 54% 29.92 in
(1013 mb)
NW 12.7 mph
(NW 20 kph)
- 10SM
05:54
Mostly Cloudy
52°F / 11°C 37°F / 3°C 58% 29.89 in
(1012 mb)
NW 13.8 mph
(NW 22 kph)
- 10SM
04:54
Mostly Cloudy
52°F / 11°C 37°F / 3°C 58% 29.86 in
(1011 mb)
NW 15 mph
(NW 24 kph)
- 10SM
03:54
Mostly Cloudy
54°F / 12°C 39°F / 4°C 58% 29.83 in
(1010 mb)
NW 12.7 mph
(NW 20 kph)
- 10SM
02:54
Mostly Cloudy
54°F / 12°C 39°F / 4°C 58% 29.8 in
(1009 mb)
NW 10.4 mph
(NW 17 kph)
- 10SM
01:54
Mostly Cloudy
54°F / 12°C 41°F / 5°C 63% 29.8 in
(1009 mb)
WNW 6.9 mph
(WNW 11 kph)
- 10SM
00:54
Mostly Cloudy
54°F / 12°C 41°F / 5°C 63% 29.8 in
(1009 mb)
W 9.2 mph
(W 15 kph)
- 10SM
Time Weather Temperature Dewpoint Humidity Pressure Winds Precip Visibility


Weather for websites

WeatherForYou.com, LLC is not responsible for any damages or problems caused by this service. Current weather conditions are obtained from the closest station including government and personal stations which may have varying degrees of accuracy. Weather forecasts are derived from the NOAA NDFD. Like all things, this site belongs to Jesus Christ... He just trusts me to maintain it. If you have any questions or comments email webmaster@weatherforyou.com

Copyright © 2014, WeatherForYou.com LLC. All rights reserved.